Regional Weather Roundup
Issued by NWS

Home | Current Version | Previous Version | Graphics & Text | Print | Product List | Glossary On
Versions: 1 2 3 4 5 6 7 8 9 10 11 12 13 14 15 16 17 18 19 20 21 22 23 24 25 26 27 28 29 30 31 32 33 34 35 36 37 38 39 40 41 42 43 44 45 46 47 48 49 50
000
ASUS43 KTOP 311308
RWRKS

WEATHER ROUNDUP FOR KANSAS
NATIONAL WEATHER SERVICE GOODLAND KS
800 AM CDT FRI OCT 31 2014

NOTE:  "FAIR" INDICATES FEW OR NO CLOUDS BELOW 12,000 FEET WITH NO
SIGNIFICANT WEATHER AND/OR OBSTRUCTIONS TO VISIBILITY.

KSZ001>006-013>018-027>032-041>047-311400-
NORTHWEST KANSAS

CITY           SKY/WX    TMP DP  RH WIND       PRES   REMARKS
GOODLAND       PTCLDY    26  24  92 CALM      30.47S
HAYS           CLOUDY    36  25  64 NE13      30.52R WCI  27
HILL CITY      CLOUDY    34  27  75 NE13      30.54R WCI  25
RUSSELL        CLOUDY    34  29  82 N13       30.51R WCI  25
$$

KSZ061>065-074>080-084>089-311400-
SOUTHWEST KANSAS

CITY           SKY/WX    TMP DP  RH WIND       PRES   REMARKS
DODGE CITY     CLOUDY    34  30  85 N13       30.46R WCI  25
ELKHART          N/A     35  25  67 N5          N/A
GARDEN CITY    CLEAR     31  29  92 N9        30.46S
GREAT BEND     PTCLDY    34  25  69 NE17      30.50R WCI  23
LIBERAL        CLEAR     36  27  69 N6        30.48R
PRATT          CLOUDY    36  32  87 N17       30.48R WCI  25
$$

KSZ066>073-081>083-090>101-311400-
SOUTHEAST KANSAS

CITY           SKY/WX    TMP DP  RH WIND       PRES   REMARKS
CHANUTE        PTCLDY    40  32  73 N17G25    30.40R WCI  31
COFFEYVILLE    LGT RAIN  46  37  71 N21G29    30.36R
HUTCHINSON     CLOUDY    39  29  67 N13G24    30.47R WCI  31
MEDICINE LODGE   N/A     37  34  89 N12       30.45R WCI  29
NEWTON         MOCLDY    36  25  64 N14G26    30.47R WCI  27
PARSONS        CLOUDY    45  36  70 N16G24    30.38R
WICHITA INTL   PTCLDY    41  31  67 N20       30.44R
WICHITA JABRA  PTCLDY    37  31  78 N18G24    30.43R WCI  27
WICHITA MCCONL CLEAR     39  32  75 N17       30.43R WCI  30
WINFIELD       MOCLDY    45  36  70 N23G29    30.41R
$$

KSZ007>012-019>026-033>040-048>060-102>105-311400-
NORTHEAST KANSAS

CITY           SKY/WX    TMP DP  RH WIND       PRES   REMARKS
CONCORDIA      CLEAR     29  21  72 N14       30.53R WCI  18
EMPORIA        MOCLDY    37  28  70 N15G26    30.45R WCI  28
LAWRENCE       FLURRIES  32  24  72 NW14      30.47R WCI  22
MANHATTAN      MOCLDY    34  23  64 N13G21    30.52R WCI  25
MARYSVILLE     CLEAR     30  23  74 N12       30.51S WCI  21
OLATHE IND     MOCLDY    35  26  69 NW14      30.43R WCI  26
OLATHE EXE     PTCLDY    36  24  62 N15       30.41R WCI  27
SALINA         MOCLDY    36  26  67 N13G22    30.51R WCI  27
TOPEKA BILLARD PTCLDY    34  25  69 N10       30.49R WCI  26
TOPEKA FORBES  PTCLDY    33  24  69 N13G21    30.47R WCI  24
$$



USA.gov is the U.S. government's official web portal to all federal, state and local government web resources and services.